DATA DISCLAIMER:,,
"Every reasonable effort has been made to assure the accuracy of these data.  However, Napa County RCD makes no warranty, representation, or guaranty ",,
"as to the content, sequence, accuracy, timeliness, or completeness of any of the data provided herein.  Napa County RCD explicitly disclaims any ",,
"representations and warranties, including, without limitation, the implied warranties of merchantability and fitness for a particular purpose.  Napa County ",,
"RCD assumes no liability for any errors, omissions, or inaccuracies in the information provided regardless of how caused.  Napa County RCD also assumes ",,
no liability for any decisions made or actions taken or not taken by the user of the data in reliance upon any information or data furnished hereunder.  ,,
"Because the data provided are not warranted to be up-to-date, the user should check with RCD staff for updated information.",,
,,
"To assist the Napa County RCD technical team in the maintenance of the data, users are requested to provide, to the address shown below, information ",,
"concerning any errors or discrepancies they find when using the data:  Napa County Resource Conservation District, (707) 252-4188, www.naparcd.org",,
,,
Date/Time (PST),GH (ft),Q (ft3/s)
10/24/2010 9:00,0.24,0.02
10/24/2010 9:15,0.32,0.1
10/24/2010 9:30,0.36,0.18
10/24/2010 9:45,0.38,0.23
10/24/2010 10:00,0.4,0.29
10/24/2010 10:15,0.41,0.36
10/24/2010 10:30,0.44,0.48
10/24/2010 10:45,0.46,0.62
10/24/2010 11:00,0.47,0.65
10/24/2010 11:15,0.45,0.55
10/24/2010 11:30,0.45,0.56
10/24/2010 11:45,0.46,0.6
10/24/2010 12:00,0.47,0.67
10/24/2010 12:15,0.45,0.58
10/24/2010 12:30,0.44,0.51
10/24/2010 12:45,0.44,0.48
10/24/2010 13:00,0.44,0.48
10/24/2010 13:15,0.44,0.52
10/24/2010 13:30,0.44,0.5
10/24/2010 13:45,0.43,0.42
10/24/2010 14:00,0.41,0.36
10/24/2010 14:15,0.4,0.32
10/24/2010 14:30,0.39,0.27
10/24/2010 14:45,0.38,0.24
10/24/2010 15:00,0.38,0.21
10/24/2010 15:15,0.37,0.19
10/24/2010 15:30,0.36,0.18
10/24/2010 15:45,0.36,0.17
10/24/2010 16:00,0.36,0.17
10/24/2010 16:15,0.35,0.15
10/24/2010 16:30,0.35,0.15
10/24/2010 16:45,0.34,0.13
10/24/2010 17:00,0.37,0.2
10/24/2010 17:15,0.81,6.12
10/24/2010 17:30,0.88,8.4
10/24/2010 17:45,0.88,8.29
10/24/2010 18:00,0.86,7.82
10/24/2010 18:15,0.85,7.33
10/24/2010 18:30,0.84,6.96
10/24/2010 18:45,0.86,7.89
10/24/2010 19:00,0.92,9.78
10/24/2010 19:15,0.93,10.3
10/24/2010 19:30,0.93,10
10/24/2010 19:45,0.91,9.53
10/24/2010 20:00,0.9,9.08
10/24/2010 20:15,0.89,8.61
10/24/2010 20:30,0.87,8.19
10/24/2010 20:45,0.86,7.62
10/24/2010 21:00,0.84,7.12
10/24/2010 21:15,0.83,6.72
10/24/2010 21:30,0.81,6.32
10/24/2010 21:45,0.8,5.93
10/24/2010 22:00,0.79,5.56
10/24/2010 22:15,0.77,5.26
10/24/2010 22:30,0.76,4.99
10/24/2010 22:45,0.75,4.75
10/24/2010 23:00,0.74,4.46
10/24/2010 23:15,0.73,4.2
10/24/2010 23:30,0.72,4.02
10/24/2010 23:45,0.71,3.84
10/25/2010 0:00,0.7,3.66
10/25/2010 0:15,0.69,3.46
10/25/2010 0:30,0.68,3.24
10/25/2010 0:45,0.67,3.05
10/25/2010 1:00,0.66,2.86
10/25/2010 1:15,0.65,2.75
10/25/2010 1:30,0.65,2.67
10/25/2010 1:45,0.64,2.54
10/25/2010 2:00,0.63,2.41
10/25/2010 2:15,0.62,2.31
10/25/2010 2:30,0.62,2.19
10/25/2010 2:45,0.61,2.12
10/25/2010 3:00,0.6,2.02
10/25/2010 3:15,0.6,1.93
10/25/2010 3:30,0.59,1.86
10/25/2010 3:45,0.59,1.81
10/25/2010 4:00,0.58,1.74
10/25/2010 4:15,0.58,1.67
10/25/2010 4:30,0.57,1.59
10/25/2010 4:45,0.56,1.54
10/25/2010 5:00,0.56,1.44
10/25/2010 5:15,0.55,1.38
10/25/2010 5:30,0.54,1.32
10/25/2010 5:45,0.54,1.24
10/25/2010 6:00,0.53,1.21
10/25/2010 6:15,0.53,1.15
10/25/2010 6:30,0.52,1.07
10/25/2010 6:45,0.51,1.01
10/25/2010 7:00,0.51,1.01
10/25/2010 7:15,0.51,0.97
10/25/2010 7:30,0.5,0.92
10/25/2010 7:45,0.5,0.87
10/25/2010 8:00,0.49,0.83
10/25/2010 8:15,0.49,0.79
10/25/2010 8:30,0.48,0.74
10/25/2010 8:45,0.48,0.74
10/25/2010 9:00,0.47,0.7
10/25/2010 9:15,0.47,0.67
10/25/2010 9:30,0.47,0.66
10/25/2010 9:45,0.46,0.63
10/25/2010 10:00,0.46,0.64
10/25/2010 10:15,0.46,0.62
10/25/2010 10:30,0.46,0.62
10/25/2010 10:45,0.46,0.62
10/25/2010 11:00,0.46,0.59
10/25/2010 11:15,0.45,0.57
10/25/2010 11:30,0.45,0.57
10/25/2010 11:45,0.45,0.54
10/25/2010 12:00,0.45,0.56
10/25/2010 12:15,0.45,0.54
10/25/2010 12:30,0.45,0.56
10/25/2010 12:45,0.45,0.54
10/25/2010 13:00,0.45,0.55
10/25/2010 13:15,0.45,0.54
10/25/2010 13:30,0.44,0.52
10/25/2010 13:45,0.44,0.52
10/25/2010 14:00,0.44,0.49
10/25/2010 14:15,0.44,0.49
10/25/2010 14:30,0.44,0.49
10/25/2010 14:45,0.44,0.51
10/25/2010 15:00,0.44,0.51
10/25/2010 15:15,0.44,0.49
10/25/2010 15:30,0.43,0.47
10/25/2010 15:45,0.43,0.46
10/25/2010 16:00,0.43,0.44
10/25/2010 16:15,0.43,0.44
10/25/2010 16:30,0.43,0.44
10/25/2010 16:45,0.43,0.45
10/25/2010 17:00,0.43,0.43
10/25/2010 17:15,0.42,0.41
10/25/2010 17:30,0.42,0.41
10/25/2010 17:45,0.42,0.41
10/25/2010 18:00,0.42,0.37
10/25/2010 18:15,0.41,0.36
10/25/2010 18:30,0.41,0.36
10/25/2010 18:45,0.41,0.34
10/25/2010 19:00,0.41,0.33
10/25/2010 19:15,0.4,0.32
10/25/2010 19:30,0.4,0.32
10/25/2010 19:45,0.4,0.31
10/25/2010 20:00,0.4,0.3
10/25/2010 20:15,0.4,0.3
10/25/2010 20:30,0.4,0.3
10/25/2010 20:45,0.4,0.29
10/25/2010 21:00,0.4,0.29
10/25/2010 21:15,0.39,0.28
10/25/2010 21:30,0.39,0.27
10/25/2010 21:45,0.39,0.27
10/25/2010 22:00,0.39,0.26
10/25/2010 22:15,0.39,0.26
10/25/2010 22:30,0.39,0.25
10/25/2010 22:45,0.38,0.24
10/25/2010 23:00,0.38,0.24
10/25/2010 23:15,0.39,0.25
10/25/2010 23:30,0.38,0.24
10/25/2010 23:45,0.39,0.25
10/26/2010 0:00,0.38,0.24
10/26/2010 0:15,0.38,0.23
10/26/2010 0:30,0.38,0.23
10/26/2010 0:45,0.38,0.22
10/26/2010 1:00,0.37,0.21
10/26/2010 1:15,0.37,0.21
10/26/2010 1:30,0.37,0.2
10/26/2010 1:45,0.37,0.2
10/26/2010 2:00,0.37,0.2
10/26/2010 2:15,0.37,0.2
10/26/2010 2:30,0.37,0.2
10/26/2010 2:45,0.37,0.2
10/26/2010 3:00,0.37,0.2
10/26/2010 3:15,0.37,0.2
10/26/2010 3:30,0.37,0.2
10/26/2010 3:45,0.37,0.19
10/26/2010 4:00,0.37,0.19
10/26/2010 4:15,0.36,0.18
10/26/2010 4:30,0.36,0.18
10/26/2010 4:45,0.36,0.17
10/26/2010 5:00,0.36,0.17
10/26/2010 5:15,0.36,0.16
10/26/2010 5:30,0.36,0.17
10/26/2010 5:45,0.36,0.16
10/26/2010 6:00,0.36,0.16
10/26/2010 6:15,0.36,0.16
10/26/2010 6:30,0.35,0.15
10/26/2010 6:45,0.35,0.15
10/26/2010 7:00,0.35,0.15
10/26/2010 7:15,0.35,0.14
10/26/2010 7:30,0.35,0.14
10/26/2010 7:45,0.34,0.14
10/26/2010 8:00,0.34,0.13
10/26/2010 8:15,0.34,0.13
10/26/2010 8:30,0.34,0.13
10/26/2010 8:45,0.34,0.13
10/26/2010 9:00,0.34,0.13
10/26/2010 9:15,0.34,0.13
10/26/2010 9:30,0.34,0.13
10/26/2010 9:45,0.34,0.13
10/26/2010 10:00,0.34,0.12
10/26/2010 10:15,0.34,0.13
10/26/2010 10:30,0.34,0.12
10/26/2010 10:45,0.34,0.12
10/26/2010 11:00,0.34,0.12
10/26/2010 11:15,0.34,0.12
10/26/2010 11:30,0.34,0.12
10/26/2010 11:45,0.34,0.12
10/26/2010 12:00,0.34,0.12
10/26/2010 12:15,0.34,0.12
10/26/2010 12:30,0.34,0.12
10/26/2010 12:45,0.34,0.12
10/26/2010 13:00,0.34,0.12
10/26/2010 13:15,0.34,0.12
10/26/2010 13:30,0.34,0.12
10/26/2010 13:45,0.34,0.12
10/26/2010 14:00,0.33,0.12
10/26/2010 14:15,0.34,0.12
10/26/2010 14:30,0.33,0.12
10/26/2010 14:45,0.34,0.12
10/26/2010 15:00,0.33,0.12
10/26/2010 15:15,0.33,0.12
10/26/2010 15:30,0.33,0.12
10/26/2010 15:45,0.33,0.11
10/26/2010 16:00,0.33,0.11
10/26/2010 16:15,0.33,0.11
10/26/2010 16:30,0.33,0.11
10/26/2010 16:45,0.33,0.11
10/26/2010 17:00,0.33,0.11
10/26/2010 17:15,0.33,0.11
10/26/2010 17:30,0.33,0.11
10/26/2010 17:45,0.33,0.11
10/26/2010 18:00,0.33,0.11
10/26/2010 18:15,0.33,0.11
10/26/2010 18:30,0.33,0.1
10/26/2010 18:45,0.32,0.1
10/26/2010 19:00,0.32,0.1
10/26/2010 19:15,0.32,0.1
10/26/2010 19:30,0.32,0.1
10/26/2010 19:45,0.32,0.1
10/26/2010 20:00,0.32,0.09
10/26/2010 20:15,0.32,0.09
10/26/2010 20:30,0.32,0.09
10/26/2010 20:45,0.32,0.09
10/26/2010 21:00,0.32,0.09
10/26/2010 21:15,0.32,0.09
10/26/2010 21:30,0.32,0.09
10/26/2010 21:45,0.31,0.09
10/26/2010 22:00,0.31,0.09
10/26/2010 22:15,0.31,0.08
10/26/2010 22:30,0.31,0.09
10/26/2010 22:45,0.31,0.08
10/26/2010 23:00,0.31,0.08
10/26/2010 23:15,0.31,0.08
10/26/2010 23:30,0.31,0.08
10/26/2010 23:45,0.31,0.08
10/27/2010 0:00,0.31,0.08
10/27/2010 0:15,0.31,0.08
10/27/2010 0:30,0.31,0.08
10/27/2010 0:45,0.31,0.08
10/27/2010 1:00,0.31,0.08
10/27/2010 1:15,0.31,0.08
10/27/2010 1:30,0.31,0.08
10/27/2010 1:45,0.31,0.08
10/27/2010 2:00,0.31,0.08
10/27/2010 2:15,0.31,0.08
10/27/2010 2:30,0.3,0.07
10/27/2010 2:45,0.3,0.07
10/27/2010 3:00,0.3,0.07
10/27/2010 3:15,0.3,0.07
10/27/2010 3:30,0.3,0.07
10/27/2010 3:45,0.3,0.07
10/27/2010 4:00,0.3,0.07
10/27/2010 4:15,0.3,0.07
10/27/2010 4:30,0.3,0.07
10/27/2010 4:45,0.3,0.07
10/27/2010 5:00,0.3,0.06
10/27/2010 5:15,0.29,0.06
10/27/2010 5:30,0.3,0.06
10/27/2010 5:45,0.3,0.06
10/27/2010 6:00,0.29,0.06
10/27/2010 6:15,0.29,0.06
10/27/2010 6:30,0.29,0.06
10/27/2010 6:45,0.29,0.06
10/27/2010 7:00,0.29,0.06
10/27/2010 7:15,0.29,0.06
10/27/2010 7:30,0.29,0.06
10/27/2010 7:45,0.29,0.06
10/27/2010 8:00,0.29,0.06
10/27/2010 8:15,0.29,0.06
10/27/2010 8:30,0.29,0.06
10/27/2010 8:45,0.29,0.06
10/27/2010 9:00,0.29,0.06
10/27/2010 9:15,0.29,0.06
10/27/2010 9:30,0.29,0.06
10/27/2010 9:45,0.29,0.06
10/27/2010 10:00,0.29,0.06
10/27/2010 10:15,0.29,0.06
10/27/2010 10:30,0.29,0.06
10/27/2010 10:45,0.29,0.06
10/27/2010 11:00,0.29,0.06
10/27/2010 11:15,0.29,0.06
10/27/2010 11:30,0.29,0.06
10/27/2010 11:45,0.29,0.06
10/27/2010 12:00,0.29,0.06
10/27/2010 12:15,0.29,0.06
10/27/2010 12:30,0.29,0.06
10/27/2010 12:45,0.29,0.06
10/27/2010 13:00,0.29,0.06
10/27/2010 13:15,0.29,0.06
10/27/2010 13:30,0.29,0.06
10/27/2010 13:45,0.29,0.06
10/27/2010 14:00,0.29,0.06
10/27/2010 14:15,0.29,0.06
10/27/2010 14:30,0.29,0.06
10/27/2010 14:45,0.29,0.06
10/27/2010 15:00,0.29,0.06
10/27/2010 15:15,0.29,0.06
10/27/2010 15:30,0.28,0.05
10/27/2010 15:45,0.28,0.05
10/27/2010 16:00,0.28,0.05
10/27/2010 16:15,0.28,0.05
10/27/2010 16:30,0.28,0.05
10/27/2010 16:45,0.28,0.05
10/27/2010 17:00,0.28,0.05
10/27/2010 17:15,0.28,0.05
10/27/2010 17:30,0.28,0.05
10/27/2010 17:45,0.28,0.05
10/27/2010 18:00,0.28,0.05
10/27/2010 18:15,0.28,0.05
10/27/2010 18:30,0.28,0.05
10/27/2010 18:45,0.28,0.05
10/27/2010 19:00,0.28,0.05
10/27/2010 19:15,0.28,0.05
10/27/2010 19:30,0.28,0.05
10/27/2010 19:45,0.28,0.05
10/27/2010 20:00,0.28,0.05
10/27/2010 20:15,0.28,0.05
10/27/2010 20:30,0.28,0.05
10/27/2010 20:45,0.28,0.05
10/27/2010 21:00,0.28,0.05
10/27/2010 21:15,0.28,0.05
10/27/2010 21:30,0.28,0.05
10/27/2010 21:45,0.28,0.05
10/27/2010 22:00,0.28,0.05
10/27/2010 22:15,0.28,0.05
10/27/2010 22:30,0.28,0.05
10/27/2010 22:45,0.28,0.05
10/27/2010 23:00,0.28,0.05
10/27/2010 23:15,0.28,0.05
10/27/2010 23:30,0.28,0.05
10/27/2010 23:45,0.28,0.05
10/28/2010 0:00,0.28,0.05
10/28/2010 0:15,0.28,0.05
10/28/2010 0:30,0.28,0.05
10/28/2010 0:45,0.28,0.05
10/28/2010 1:00,0.28,0.05
10/28/2010 1:15,0.28,0.05
10/28/2010 1:30,0.28,0.05
10/28/2010 1:45,0.28,0.05
10/28/2010 2:00,0.28,0.05
10/28/2010 2:15,0.28,0.05
10/28/2010 2:30,0.28,0.05
10/28/2010 2:45,0.28,0.05
10/28/2010 3:00,0.28,0.05
10/28/2010 3:15,0.28,0.05
10/28/2010 3:30,0.28,0.05
10/28/2010 3:45,0.28,0.05
10/28/2010 4:00,0.28,0.05
10/28/2010 4:15,0.28,0.05
10/28/2010 4:30,0.28,0.05
10/28/2010 4:45,0.28,0.05
10/28/2010 5:00,0.28,0.05
10/28/2010 5:15,0.28,0.05
10/28/2010 5:30,0.28,0.05
10/28/2010 5:45,0.28,0.05
10/28/2010 6:00,0.27,0.04
10/28/2010 6:15,0.27,0.04
10/28/2010 6:30,0.27,0.04
10/28/2010 6:45,0.27,0.04
10/28/2010 7:00,0.27,0.04
10/28/2010 7:15,0.27,0.04
10/28/2010 7:30,0.27,0.04
10/28/2010 7:45,0.27,0.04
10/28/2010 8:00,0.27,0.04
10/28/2010 8:15,0.27,0.04
10/28/2010 8:30,0.27,0.04
10/28/2010 8:45,0.27,0.04
10/28/2010 9:00,0.27,0.04
10/28/2010 9:15,0.27,0.04
10/28/2010 9:30,0.27,0.04
10/28/2010 9:45,0.27,0.04
10/28/2010 10:00,0.27,0.04
10/28/2010 10:15,0.27,0.04
10/28/2010 10:30,0.27,0.04
10/28/2010 10:45,0.27,0.04
10/28/2010 11:00,0.27,0.04
10/28/2010 11:15,0.27,0.04
10/28/2010 11:30,0.27,0.04
10/28/2010 11:45,0.27,0.04
10/28/2010 12:00,0.27,0.04
10/28/2010 12:15,0.27,0.04
10/28/2010 12:30,0.27,0.04
10/28/2010 12:45,0.27,0.04
10/28/2010 13:00,0.27,0.04
10/28/2010 13:15,0.27,0.04
10/28/2010 13:30,0.27,0.04
10/28/2010 13:45,0.27,0.04
10/28/2010 14:00,0.27,0.04
10/28/2010 14:15,0.27,0.04
10/28/2010 14:30,0.27,0.04
10/28/2010 14:45,0.27,0.04
10/28/2010 15:00,0.27,0.04
10/28/2010 15:15,0.27,0.04
10/28/2010 15:30,0.27,0.04
10/28/2010 15:45,0.27,0.04
10/28/2010 16:00,0.27,0.04
10/28/2010 16:15,0.27,0.04
10/28/2010 16:30,0.27,0.04
10/28/2010 16:45,0.27,0.04
10/28/2010 17:00,0.27,0.04
10/28/2010 17:15,0.27,0.04
10/28/2010 17:30,0.27,0.04
10/28/2010 17:45,0.27,0.04
10/28/2010 18:00,0.27,0.04
10/28/2010 18:15,0.27,0.04
10/28/2010 18:30,0.26,0.04
10/28/2010 18:45,0.26,0.04
10/28/2010 19:00,0.26,0.04
10/28/2010 19:15,0.26,0.03
10/28/2010 19:30,0.26,0.03
10/28/2010 19:45,0.26,0.03
10/28/2010 20:00,0.26,0.03
10/28/2010 20:15,0.26,0.03
10/28/2010 20:30,0.26,0.03
10/28/2010 20:45,0.26,0.03
10/28/2010 21:00,0.26,0.03
10/28/2010 21:15,0.26,0.03
10/28/2010 21:30,0.26,0.03
10/28/2010 21:45,0.26,0.03
10/28/2010 22:00,0.26,0.03
10/28/2010 22:15,0.26,0.03
10/28/2010 22:30,0.26,0.03
10/28/2010 22:45,0.26,0.03
10/28/2010 23:00,0.26,0.03
10/28/2010 23:15,0.26,0.04
10/28/2010 23:30,0.26,0.03
10/28/2010 23:45,0.26,0.04
10/29/2010 0:00,0.26,0.04
10/29/2010 0:15,0.27,0.04
10/29/2010 0:30,0.27,0.04
10/29/2010 0:45,0.27,0.04
10/29/2010 1:00,0.27,0.04
10/29/2010 1:15,0.27,0.04
10/29/2010 1:30,0.27,0.04
10/29/2010 1:45,0.27,0.04
10/29/2010 2:00,0.27,0.04
10/29/2010 2:15,0.27,0.04
10/29/2010 2:30,0.27,0.04
10/29/2010 2:45,0.27,0.04
10/29/2010 3:00,0.27,0.04
10/29/2010 3:15,0.27,0.04
10/29/2010 3:30,0.27,0.04
10/29/2010 3:45,0.27,0.04
10/29/2010 4:00,0.27,0.04
10/29/2010 4:15,0.27,0.04
10/29/2010 4:30,0.27,0.04
10/29/2010 4:45,0.27,0.04
10/29/2010 5:00,0.27,0.04
10/29/2010 5:15,0.27,0.04
10/29/2010 5:30,0.27,0.04
10/29/2010 5:45,0.27,0.04
10/29/2010 6:00,0.27,0.04
10/29/2010 6:15,0.27,0.04
10/29/2010 6:30,0.27,0.04
10/29/2010 6:45,0.27,0.04
10/29/2010 7:00,0.27,0.04
10/29/2010 7:15,0.27,0.04
10/29/2010 7:30,0.27,0.04
10/29/2010 7:45,0.27,0.04
10/29/2010 8:00,0.27,0.04
10/29/2010 8:15,0.27,0.04
10/29/2010 8:30,0.26,0.04
10/29/2010 8:45,0.26,0.04
10/29/2010 9:00,0.26,0.04
10/29/2010 9:15,0.26,0.04
10/29/2010 9:30,0.26,0.04
10/29/2010 9:45,0.26,0.04
10/29/2010 10:00,0.26,0.04
10/29/2010 10:15,0.26,0.03
10/29/2010 10:30,0.26,0.04
10/29/2010 10:45,0.26,0.04
10/29/2010 11:00,0.26,0.04
10/29/2010 11:15,0.27,0.04
10/29/2010 11:30,0.27,0.04
10/29/2010 11:45,0.27,0.04
10/29/2010 12:00,0.27,0.04
10/29/2010 12:15,0.27,0.04
10/29/2010 12:30,0.27,0.04
10/29/2010 12:45,0.27,0.04
10/29/2010 13:00,0.27,0.04
10/29/2010 13:15,0.27,0.04
10/29/2010 13:30,0.27,0.04
10/29/2010 13:45,0.27,0.04
10/29/2010 14:00,0.27,0.04
10/29/2010 14:15,0.27,0.04
10/29/2010 14:30,0.27,0.04
10/29/2010 14:45,0.27,0.04
10/29/2010 15:00,0.27,0.04
10/29/2010 15:15,0.27,0.04
10/29/2010 15:30,0.27,0.04
10/29/2010 15:45,0.27,0.04
10/29/2010 16:00,0.28,0.05
10/29/2010 16:15,0.28,0.05
10/29/2010 16:30,0.28,0.05
10/29/2010 16:45,0.28,0.05
10/29/2010 17:00,0.28,0.05
10/29/2010 17:15,0.28,0.05
10/29/2010 17:30,0.28,0.05
10/29/2010 17:45,0.28,0.05
10/29/2010 18:00,0.28,0.05
10/29/2010 18:15,0.28,0.05
10/29/2010 18:30,0.28,0.05
10/29/2010 18:45,0.28,0.05
10/29/2010 19:00,0.28,0.05
10/29/2010 19:15,0.28,0.05
10/29/2010 19:30,0.28,0.05
10/29/2010 19:45,0.28,0.05
10/29/2010 20:00,0.28,0.05
10/29/2010 20:15,0.28,0.05
10/29/2010 20:30,0.28,0.05
10/29/2010 20:45,0.28,0.05
10/29/2010 21:00,0.27,0.04
10/29/2010 21:15,0.27,0.04
10/29/2010 21:30,0.27,0.04
10/29/2010 21:45,0.27,0.04
10/29/2010 22:00,0.28,0.05
10/29/2010 22:15,0.27,0.04
10/29/2010 22:30,0.28,0.05
10/29/2010 22:45,0.28,0.05
10/29/2010 23:00,0.28,0.05
10/29/2010 23:15,0.28,0.05
10/29/2010 23:30,0.28,0.05
10/29/2010 23:45,0.28,0.05
10/30/2010 0:00,0.28,0.05
10/30/2010 0:15,0.28,0.05
10/30/2010 0:30,0.28,0.05
10/30/2010 0:45,0.27,0.04
10/30/2010 1:00,0.27,0.04
10/30/2010 1:15,0.28,0.05
10/30/2010 1:30,0.27,0.04
10/30/2010 1:45,0.27,0.04
10/30/2010 2:00,0.27,0.04
10/30/2010 2:15,0.27,0.04
10/30/2010 2:30,0.27,0.04
10/30/2010 2:45,0.27,0.04
10/30/2010 3:00,0.27,0.04
10/30/2010 3:15,0.27,0.04
10/30/2010 3:30,0.27,0.04
10/30/2010 3:45,0.27,0.04
10/30/2010 4:00,0.27,0.04
10/30/2010 4:15,0.27,0.04
10/30/2010 4:30,0.27,0.04
10/30/2010 4:45,0.27,0.04
10/30/2010 5:00,0.27,0.04
10/30/2010 5:15,0.27,0.04
10/30/2010 5:30,0.27,0.04
10/30/2010 5:45,0.27,0.04
10/30/2010 6:00,0.27,0.04
10/30/2010 6:15,0.26,0.04
10/30/2010 6:30,0.26,0.04
10/30/2010 6:45,0.26,0.04
10/30/2010 7:00,0.26,0.03
10/30/2010 7:15,0.26,0.03
10/30/2010 7:30,0.26,0.03
10/30/2010 7:45,0.26,0.03
10/30/2010 8:00,0.26,0.03
10/30/2010 8:15,0.26,0.03
10/30/2010 8:30,0.26,0.03
10/30/2010 8:45,0.26,0.03
10/30/2010 9:00,0.26,0.03
10/30/2010 9:15,0.26,0.03
10/30/2010 9:30,0.26,0.03
10/30/2010 9:45,0.26,0.03
10/30/2010 10:00,0.26,0.03
10/30/2010 10:15,0.26,0.03
10/30/2010 10:30,0.26,0.03
10/30/2010 10:45,0.26,0.03
10/30/2010 11:00,0.26,0.03
10/30/2010 11:15,0.25,0.03
10/30/2010 11:30,0.26,0.03
10/30/2010 11:45,0.26,0.03
10/30/2010 12:00,0.26,0.03
10/30/2010 12:15,0.25,0.03
10/30/2010 12:30,0.26,0.03
10/30/2010 12:45,0.25,0.03
10/30/2010 13:00,0.25,0.03
10/30/2010 13:15,0.26,0.03
10/30/2010 13:30,0.26,0.03
10/30/2010 13:45,0.26,0.03
10/30/2010 14:00,0.26,0.03
10/30/2010 14:15,0.26,0.03
10/30/2010 14:30,0.26,0.03
10/30/2010 14:45,0.26,0.03
10/30/2010 15:00,0.26,0.03
10/30/2010 15:15,0.26,0.03
10/30/2010 15:30,0.26,0.03
10/30/2010 15:45,0.26,0.03
10/30/2010 16:00,0.26,0.03
10/30/2010 16:15,0.26,0.03
10/30/2010 16:30,0.26,0.03
10/30/2010 16:45,0.26,0.03
10/30/2010 17:00,0.26,0.03
10/30/2010 17:15,0.26,0.03
10/30/2010 17:30,0.26,0.03
10/30/2010 17:45,0.26,0.03
10/30/2010 18:00,0.26,0.03
10/30/2010 18:15,0.25,0.03
10/30/2010 18:30,0.25,0.03
10/30/2010 18:45,0.25,0.03
10/30/2010 19:00,0.25,0.03
10/30/2010 19:15,0.25,0.03
10/30/2010 19:30,0.25,0.03
10/30/2010 19:45,0.25,0.03
10/30/2010 20:00,0.25,0.03
10/30/2010 20:15,0.25,0.03
10/30/2010 20:30,0.25,0.03
10/30/2010 20:45,0.25,0.03
10/30/2010 21:00,0.25,0.03
10/30/2010 21:15,0.25,0.03
10/30/2010 21:30,0.25,0.03
10/30/2010 21:45,0.26,0.03
10/30/2010 22:00,0.25,0.03
10/30/2010 22:15,0.25,0.03
10/30/2010 22:30,0.25,0.03
10/30/2010 22:45,0.25,0.03
10/30/2010 23:00,0.25,0.03
10/30/2010 23:15,0.25,0.03
10/30/2010 23:30,0.25,0.03
10/30/2010 23:45,0.25,0.03
10/31/2010 0:00,0.25,0.03
10/31/2010 0:15,0.25,0.03
10/31/2010 0:30,0.25,0.03
10/31/2010 0:45,0.25,0.03
10/31/2010 1:00,0.25,0.03
10/31/2010 1:15,0.25,0.03
10/31/2010 1:30,0.25,0.03
10/31/2010 1:45,0.25,0.03
10/31/2010 2:00,0.25,0.03
10/31/2010 2:15,0.25,0.03
10/31/2010 2:30,0.25,0.03
10/31/2010 2:45,0.25,0.03
10/31/2010 3:00,0.25,0.03
10/31/2010 3:15,0.26,0.03
10/31/2010 3:30,0.26,0.03
10/31/2010 3:45,0.26,0.03
10/31/2010 4:00,0.25,0.03
10/31/2010 4:15,0.25,0.03
10/31/2010 4:30,0.25,0.03
10/31/2010 4:45,0.25,0.03
10/31/2010 5:00,0.25,0.03
10/31/2010 5:15,0.25,0.03
10/31/2010 5:30,0.25,0.03
10/31/2010 5:45,0.25,0.03
10/31/2010 6:00,0.25,0.03
10/31/2010 6:15,0.25,0.03
10/31/2010 6:30,0.25,0.03
10/31/2010 6:45,0.25,0.03
10/31/2010 7:00,0.25,0.03
10/31/2010 7:15,0.25,0.03
10/31/2010 7:30,0.25,0.03
10/31/2010 7:45,0.25,0.03
10/31/2010 8:00,0.25,0.03
10/31/2010 8:15,0.25,0.03
10/31/2010 8:30,0.25,0.03
10/31/2010 8:45,0.25,0.02
10/31/2010 9:00,0.25,0.02
10/31/2010 9:15,0.25,0.02
10/31/2010 9:30,0.25,0.03
10/31/2010 9:45,0.25,0.03
10/31/2010 10:00,0.25,0.03
10/31/2010 10:15,0.25,0.03
10/31/2010 10:30,0.25,0.03
10/31/2010 10:45,0.25,0.03
10/31/2010 11:00,0.25,0.03
10/31/2010 11:15,0.25,0.03
10/31/2010 11:30,0.25,0.03
10/31/2010 11:45,0.25,0.03
10/31/2010 12:00,0.25,0.03
10/31/2010 12:15,0.25,0.03
10/31/2010 12:30,0.25,0.03
10/31/2010 12:45,0.25,0.03
10/31/2010 13:00,0.25,0.03
10/31/2010 13:15,0.25,0.03
10/31/2010 13:30,0.25,0.03
10/31/2010 13:45,0.25,0.03
10/31/2010 14:00,0.25,0.03
10/31/2010 14:15,0.25,0.03
10/31/2010 14:30,0.25,0.03
10/31/2010 14:45,0.25,0.03
10/31/2010 15:00,0.25,0.03
10/31/2010 15:15,0.25,0.03
10/31/2010 15:30,0.25,0.03
10/31/2010 15:45,0.25,0.03
10/31/2010 16:00,0.25,0.03
10/31/2010 16:15,0.25,0.03
10/31/2010 16:30,0.25,0.03
10/31/2010 16:45,0.25,0.03
10/31/2010 17:00,0.25,0.03
10/31/2010 17:15,0.25,0.03
10/31/2010 17:30,0.25,0.03
10/31/2010 17:45,0.25,0.03
10/31/2010 18:00,0.25,0.03
10/31/2010 18:15,0.25,0.03
10/31/2010 18:30,0.25,0.03
10/31/2010 18:45,0.25,0.02
10/31/2010 19:00,0.25,0.02
10/31/2010 19:15,0.25,0.02
10/31/2010 19:30,0.25,0.02
10/31/2010 19:45,0.25,0.02
10/31/2010 20:00,0.25,0.02
10/31/2010 20:15,0.25,0.02
10/31/2010 20:30,0.25,0.02
10/31/2010 20:45,0.25,0.02
10/31/2010 21:00,0.25,0.02
10/31/2010 21:15,0.25,0.02
10/31/2010 21:30,0.25,0.02
10/31/2010 21:45,0.25,0.02
10/31/2010 22:00,0.25,0.02
10/31/2010 22:15,0.25,0.02
10/31/2010 22:30,0.25,0.02
10/31/2010 22:45,0.25,0.02
10/31/2010 23:00,0.25,0.02
10/31/2010 23:15,0.25,0.02
10/31/2010 23:30,0.25,0.02
10/31/2010 23:45,0.25,0.02
11/1/2010 0:00,0.25,0.02
11/1/2010 0:15,0.25,0.03
11/1/2010 0:30,0.25,0.02
11/1/2010 0:45,0.25,0.02
11/1/2010 1:00,0.25,0.02
11/1/2010 1:15,0.25,0.02
11/1/2010 1:30,0.25,0.02
11/1/2010 1:45,0.25,0.03
11/1/2010 2:00,0.25,0.02
11/1/2010 2:15,0.25,0.02
11/1/2010 2:30,0.25,0.02
11/1/2010 2:45,0.25,0.02
11/1/2010 3:00,0.25,0.03
11/1/2010 3:15,0.25,0.02
11/1/2010 3:30,0.25,0.02
11/1/2010 3:45,0.25,0.02
11/1/2010 4:00,0.25,0.02
11/1/2010 4:15,0.25,0.02
11/1/2010 4:30,0.25,0.02
11/1/2010 4:45,0.25,0.02
11/1/2010 5:00,0.25,0.02
11/1/2010 5:15,0.25,0.02
11/1/2010 5:30,0.25,0.02
11/1/2010 5:45,0.25,0.02
11/1/2010 6:00,0.25,0.02
11/1/2010 6:15,0.25,0.02
11/1/2010 6:30,0.25,0.02
11/1/2010 6:45,0.25,0.02
11/1/2010 7:00,0.25,0.02
11/1/2010 7:15,0.24,0.02
11/1/2010 7:30,0.24,0.02
11/1/2010 7:45,0.24,0.02
11/1/2010 8:00,0.24,0.02
11/1/2010 8:15,0.24,0.02
11/1/2010 8:30,0.24,0.02
11/1/2010 8:45,0.24,0.02
11/1/2010 9:00,0.24,0.02
11/1/2010 9:15,0.24,0.02
11/1/2010 9:30,0.25,0.02
11/1/2010 9:45,0.24,0.02
11/1/2010 10:00,0.25,0.02
11/1/2010 10:15,0.24,0.02
11/1/2010 10:30,0.25,0.02
11/1/2010 10:45,0.25,0.02
11/1/2010 11:00,0.25,0.02
11/1/2010 11:15,0.25,0.02
11/1/2010 11:30,0.25,0.03
11/1/2010 11:45,0.25,0.02
11/1/2010 12:00,0.25,0.02
11/1/2010 12:15,0.25,0.03
11/1/2010 12:30,0.25,0.03
11/1/2010 12:45,0.25,0.02
11/1/2010 13:00,0.25,0.02
11/1/2010 13:15,0.25,0.02
11/1/2010 13:30,0.25,0.02
11/1/2010 13:45,0.25,0.02
11/1/2010 14:00,0.25,0.02
11/1/2010 14:15,0.25,0.02
11/1/2010 14:30,0.25,0.02
11/1/2010 14:45,0.25,0.03
11/1/2010 15:00,0.25,0.03
11/1/2010 15:15,0.25,0.02
11/1/2010 15:30,0.25,0.02
11/1/2010 15:45,0.25,0.02
11/1/2010 16:00,0.24,0.02
11/1/2010 16:15,0.25,0.02
11/1/2010 16:30,0.25,0.02
11/1/2010 16:45,0.25,0.02
11/1/2010 17:00,0.24,0.02
11/1/2010 17:15,0.25,0.02
11/1/2010 17:30,0.25,0.02
11/1/2010 17:45,0.24,0.02
11/1/2010 18:00,0.24,0.02
11/1/2010 18:15,0.25,0.02
11/1/2010 18:30,0.25,0.02
11/1/2010 18:45,0.24,0.02
11/1/2010 19:00,0.24,0.02
11/1/2010 19:15,0.25,0.02
11/1/2010 19:30,0.24,0.02
11/1/2010 19:45,0.25,0.02
11/1/2010 20:00,0.25,0.02
11/1/2010 20:15,0.25,0.02
11/1/2010 20:30,0.24,0.02
11/1/2010 20:45,0.25,0.02
11/1/2010 21:00,0.25,0.02
11/1/2010 21:15,0.24,0.02
11/1/2010 21:30,0.25,0.02
11/1/2010 21:45,0.25,0.02
11/1/2010 22:00,0.25,0.02
11/1/2010 22:15,0.25,0.02
11/1/2010 22:30,0.25,0.03
11/1/2010 22:45,0.25,0.03
11/1/2010 23:00,0.25,0.03
11/1/2010 23:15,0.25,0.03
11/1/2010 23:30,0.25,0.03
11/1/2010 23:45,0.25,0.03